TimeCST,TemperatureF,Dew PointF,Humidity,Sea Level PressureIn,VisibilityMPH,Wind Direction,Wind SpeedMPH,Gust SpeedMPH,PrecipitationIn,Events,Conditions,WindDirDegrees,DateUTC
12:35 AM,37.4,28.4,70,30.21,10.0,SE,4.6,-,N/A,,Clear,140,2012-11-29 06:35:00
12:55 AM,37.4,28.4,70,30.20,10.0,SE,5.8,-,N/A,,Clear,140,2012-11-29 06:55:00
1:15 AM,37.4,28.4,70,30.20,10.0,SE,4.6,-,N/A,,Clear,140,2012-11-29 07:15:00
1:35 AM,37.4,28.4,70,30.20,10.0,Calm,Calm,-,N/A,,Clear,0,2012-11-29 07:35:00
1:55 AM,37.4,28.4,70,30.20,10.0,SSE,3.5,-,N/A,,Clear,150,2012-11-29 07:55:00
2:15 AM,37.4,28.4,70,30.20,10.0,SSE,3.5,-,N/A,,Clear,160,2012-11-29 08:15:00
2:36 AM,37.4,28.4,70,30.21,10.0,SE,4.6,-,N/A,,Clear,140,2012-11-29 08:36:00
2:55 AM,37.4,28.4,70,30.21,10.0,SE,3.5,-,N/A,,Clear,130,2012-11-29 08:55:00
3:15 AM,37.4,28.4,70,30.21,10.0,SE,3.5,-,N/A,,Clear,140,2012-11-29 09:15:00
3:35 AM,37.4,28.4,70,30.20,10.0,SE,3.5,-,N/A,,Clear,140,2012-11-29 09:35:00
3:55 AM,35.6,28.4,75,30.20,10.0,SSE,4.6,-,N/A,,Clear,150,2012-11-29 09:55:00
4:15 AM,35.6,28.4,75,30.20,10.0,South,5.8,-,N/A,,Clear,170,2012-11-29 10:15:00
4:55 AM,37.4,28.4,70,30.19,10.0,South,8.1,-,N/A,,Clear,170,2012-11-29 10:55:00
5:15 AM,39.2,28.4,65,30.20,10.0,South,4.6,-,N/A,,Clear,180,2012-11-29 11:15:00
5:55 AM,39.2,28.4,65,30.20,10.0,South,6.9,-,N/A,,Clear,170,2012-11-29 11:55:00
6:15 AM,39.2,28.4,65,30.19,10.0,South,6.9,-,N/A,,Clear,180,2012-11-29 12:15:00
6:35 AM,42.8,28.4,57,30.19,10.0,South,9.2,-,N/A,,Clear,180,2012-11-29 12:35:00
6:56 AM,42.8,28.4,57,30.20,10.0,South,6.9,-,N/A,,Clear,190,2012-11-29 12:56:00
7:15 AM,42.8,28.4,57,30.20,10.0,South,5.8,-,N/A,,Clear,180,2012-11-29 13:15:00
7:35 AM,42.8,28.4,57,30.20,10.0,South,8.1,-,N/A,,Clear,180,2012-11-29 13:35:00
8:15 AM,46.4,30.2,53,30.20,10.0,South,6.9,-,N/A,,Clear,180,2012-11-29 14:15:00
8:35 AM,48.2,30.2,50,30.20,10.0,South,8.1,-,N/A,,Clear,180,2012-11-29 14:35:00
8:55 AM,48.2,32.0,54,30.20,10.0,South,11.5,-,N/A,,Clear,180,2012-11-29 14:55:00
9:16 AM,51.8,32.0,47,30.20,10.0,South,11.5,16.1,N/A,,Clear,190,2012-11-29 15:16:00
9:35 AM,51.8,32.0,47,30.19,10.0,South,11.5,17.3,N/A,,Clear,180,2012-11-29 15:35:00
10:35 AM,55.4,33.8,44,30.19,10.0,SSW,11.5,18.4,N/A,,Clear,210,2012-11-29 16:35:00
10:55 AM,57.2,33.8,41,30.18,10.0,SSW,10.4,16.1,N/A,,Clear,200,2012-11-29 16:55:00
11:15 AM,57.2,33.8,41,30.18,10.0,SSW,15.0,25.3,N/A,,Clear,200,2012-11-29 17:15:00
11:55 AM,60.8,33.8,36,30.15,10.0,SSW,16.1,24.2,N/A,,Clear,200,2012-11-29 17:55:00
12:15 PM,60.8,33.8,36,30.14,10.0,South,15.0,24.2,N/A,,Clear,190,2012-11-29 18:15:00
12:35 PM,62.6,33.8,34,30.14,10.0,SSW,12.7,18.4,N/A,,Clear,210,2012-11-29 18:35:00
12:55 PM,62.6,32.0,32,30.13,10.0,SSW,15.0,20.7,N/A,,Clear,200,2012-11-29 18:55:00
1:15 PM,62.6,32.0,32,30.13,10.0,South,15.0,21.9,N/A,,Clear,190,2012-11-29 19:15:00
1:35 PM,62.6,32.0,32,30.12,10.0,SSW,13.8,17.3,N/A,,Clear,200,2012-11-29 19:35:00
1:55 PM,64.4,30.2,28,30.11,10.0,SSW,13.8,-,N/A,,Clear,200,2012-11-29 19:55:00
2:15 PM,64.4,30.2,28,30.11,10.0,South,13.8,20.7,N/A,,Clear,190,2012-11-29 20:15:00
2:35 PM,62.6,32.0,32,30.11,10.0,SSW,17.3,20.7,N/A,,Clear,200,2012-11-29 20:35:00
2:56 PM,62.6,30.2,30,30.10,10.0,SSW,11.5,23.0,N/A,,Clear,200,2012-11-29 20:56:00
3:15 PM,62.6,32.0,32,30.10,10.0,South,11.5,19.6,N/A,,Clear,190,2012-11-29 21:15:00
3:35 PM,62.6,30.2,30,30.09,10.0,South,13.8,20.7,N/A,,Clear,190,2012-11-29 21:35:00
3:56 PM,60.8,30.2,31,30.09,10.0,SSW,11.5,18.4,N/A,,Clear,200,2012-11-29 21:56:00
4:15 PM,60.8,32.0,34,30.09,10.0,South,12.7,16.1,N/A,,Clear,190,2012-11-29 22:15:00
4:35 PM,59.0,32.0,36,30.09,10.0,South,9.2,16.1,N/A,,Clear,180,2012-11-29 22:35:00
4:56 PM,57.2,32.0,38,30.09,10.0,South,9.2,16.1,N/A,,Clear,180,2012-11-29 22:56:00
5:15 PM,55.4,30.2,38,30.09,10.0,South,8.1,-,N/A,,Clear,170,2012-11-29 23:15:00
5:35 PM,55.4,30.2,38,30.09,10.0,South,8.1,-,N/A,,Clear,180,2012-11-29 23:35:00
6:15 PM,53.6,30.2,41,30.07,10.0,SSE,8.1,-,N/A,,Clear,160,2012-11-30 00:15:00
6:35 PM,51.8,30.2,44,30.07,10.0,SSE,9.2,-,N/A,,Clear,160,2012-11-30 00:35:00
6:55 PM,51.8,30.2,44,30.07,10.0,South,8.1,-,N/A,,Clear,170,2012-11-30 00:55:00
7:15 PM,50.0,30.2,47,30.07,10.0,SSE,6.9,-,N/A,,Clear,160,2012-11-30 01:15:00
7:35 PM,48.2,30.2,50,30.07,10.0,SSE,6.9,-,N/A,,Clear,160,2012-11-30 01:35:00
7:55 PM,46.4,28.4,50,30.06,10.0,SSE,6.9,-,N/A,,Clear,150,2012-11-30 01:55:00
8:15 PM,46.4,28.4,50,30.06,10.0,SSE,8.1,-,N/A,,Clear,150,2012-11-30 02:15:00
8:35 PM,-9999,-9999,N/A,30.06,10.0,SSE,8.1,-,N/A,,Clear,150,2012-11-30 02:35:00
9:35 PM,44.6,28.4,53,30.09,10.0,South,3.5,-,N/A,,Clear,190,2012-11-30 03:35:00
9:55 PM,42.8,28.4,57,30.10,10.0,Calm,Calm,-,N/A,,Clear,0,2012-11-30 03:55:00
10:15 PM,41.0,30.2,65,30.11,10.0,Calm,Calm,-,N/A,,Clear,0,2012-11-30 04:15:00
10:35 PM,42.8,28.4,57,30.12,10.0,Calm,Calm,-,N/A,,Clear,0,2012-11-30 04:35:00
10:55 PM,44.6,26.6,49,30.11,10.0,SSW,4.6,-,N/A,,Clear,200,2012-11-30 04:55:00
11:15 PM,44.6,26.6,49,30.11,10.0,South,5.8,-,N/A,,Clear,190,2012-11-30 05:15:00
11:55 PM,48.2,28.4,46,30.12,10.0,South,6.9,-,N/A,,Clear,180,2012-11-30 05:55:00